Miscellaneous Local Product
Issued by NWS North Platte, NE

Home | Current Version | Previous Version | Graphics & Text | Print | Product List | Glossary On
Versions: 1 2 3 4 5 6 7 8 9 10 11 12 13 14 15 16 17 18 19 20 21 22 23 24 25 26 27 28 29 30 31 32 33 34 35 36 37 38 39 40 41 42 43 44 45 46 47 48 49 50
486
AXUS43 KLBF 222010
MISLBF


WESTERN AND NORTH CENTRAL NEBRASKA HOURLY WEATHER ROUNDUP
NATIONAL WEATHER SERVICE NORTH PLATTE NE
300 PM CDT TUE MAY 22 2018

NOTE: "FAIR" INDICATES FEW OR NO CLOUDS BELOW 12,000 FEET WITH NO
SIGNIFICANT WEATHER AND/OR OBSTRUCTIONS TO VISIBILITY.

NOTE: STATIONS NOT REPORTING VARIABLES SUCH AS SKY/WEATHER OR
PRESSURE ARE PROVIDED BY RAWS AND APRS NETWORKS AND ARE NOT UNDER
NATIONAL WEATHER SERVICE QUALITY CONTROL.

...OBSERVATIONS IN AND NEAR THE EASTERN PANHANDLE OF NEBRASKA...

CITY           SKY/WX    TMP DP  RH WIND       PRES   REMARKS
PINE RIDGE     MOSUNNY   84  52  33 E10       29.91F
GORDON         FAIR      82  53  35 SE14      29.93S
CHADRON        MOSUNNY   83  53  35 E9G16     29.89F
ALLIANCE       MOSUNNY   81  52  36 SE17      29.92F
SIDNEY         PTSUNNY   78  51  38 SE20G26   29.95S
CRESCENT LAKE    N/A     80  53  38 SE9G20      N/A
$$

...OBSERVATIONS IN NORTHERN NEBRASKA AND FAR SOUTHERN SOUTH DAKOTA...

CITY           SKY/WX    TMP DP  RH WIND       PRES   REMARKS
WINNER         FAIR      81  65  58 SE13      29.92F
VALENTINE      MOSUNNY   83  63  50 SE13      29.92F
AINSWORTH      MOSUNNY   79  65  62 SE12      29.93F
O`NEILL        PTSUNNY   80  67  63 E9        29.94F
THEDFORD       CLOUDY    82  58  43 SE13G20   29.94F
BROKEN BOW     CLOUDY    82  59  45 S12       29.94S
ORD            CLOUDY    82  63  52 S10       29.91F
ALBION         MOSUNNY   82  66  58 S13       29.93F
VALENTINE NWR    N/A     81  61  50 E9G16       N/A
HALSEY           N/A     81  62  51 SE7G14      N/A
BUTTE            N/A     75  64  70 SE14        N/A
CHAMBERS         N/A     83  68  59 CALM        N/A
EWING            N/A     81  67  62 S6          N/A
$$

...OBSERVATIONS IN SOUTHWEST NEBRASKA AND FAR NORTHEAST COLORADO...

CITY           SKY/WX    TMP DP  RH WIND       PRES   REMARKS
WRAY           FAIR      79  48  34 S15G24    29.91F
HOLYOKE        FAIR      81  50  34 SE21      29.92F
IMPERIAL       CLOUDY    83  53  35 SE21G33   29.90F
OGALLALA       CLOUDY    79  53  40 SE12G22   29.92F
NORTH PLATTE   CLOUDY    81  61  50 SE8       29.93F
MCCOOK         MOSUNNY   84  58  40 S17G25    29.90F
LEXINGTON      PTSUNNY   83  61  47 SE10      29.93F
STAPLETON        N/A     82  60  46 E3          N/A
GOTHENBURG       N/A     81  54  38 SE7         N/A
CALLAWAY         N/A     80  62  53 S14         N/A
$$

...OBSERVATIONS IN CENTRAL LINCOLN COUNTY AREA...

CITY           SKY/WX    TMP DP  RH WIND       PRES   REMARKS
N.P. AIRPORT   CLOUDY    81  61  50 SE8       29.93F
N.P. DOWNTOWN    N/A     82  58  43 CALM        N/A
N.P. SOUTHEAST   N/A     82  58  44 SE5         N/A
$$

...OBSERVATIONS ACROSS THE ROCKIES AND WESTERN HIGH PLAINS...

CITY           SKY/WX    TMP DP  RH WIND       PRES   REMARKS
RAPID CITY     MOSUNNY   78  56  46 E8G18     29.93F
SCOTTSBLUFF    SUNNY     80  59  48 SE13      29.90F
CHEYENNE       PTSUNNY   72  49  44 E13       29.98F
DENVER         PTSUNNY   78  46  32 SE3       29.91F
BERTHOUD PASS  PTSUNNY   41  32  70 SE14G24   30.33F
COPPER MTN     FLURRIES  45  30  57 SE7       30.31F
MONARCH PASS   PTSUNNY   52  32  46 MISG      30.41F
ASPEN          CLOUDY    69  27  20 SE10G16   30.02F
STEAMBOAT      FAIR      70  38  30 SW9       29.95F
LARAMIE        CLOUDY    70  43  37 E17G26    30.01S
CASPER         MOSUNNY   72  50  45 E17G25    29.95F
$$

...OBSERVATIONS ACROSS THE NORTHERN PLAINS...

CITY           SKY/WX    TMP DP  RH WIND       PRES   REMARKS
BISMARCK       MOSUNNY   81  55  40 E7        29.92F
FARGO          FAIR      78  56  46 VRB3      29.96F
PIERRE         SUNNY     81  64  56 SE12G24   29.89F
SIOUX FALLS    PTSUNNY   78  65  63 SE15G22   29.96F
$$

...OBSERVATIONS ACROSS THE CENTRAL AND SOUTHERN PLAINS...

CITY           SKY/WX    TMP DP  RH WIND       PRES   REMARKS
OMAHA          PTSUNNY   79  62  56 S14G23    29.96F
GRAND ISLAND   MOSUNNY   85  67  54 S10       29.94F
KANSAS CITY    MOSUNNY   84  63  49 E9        30.02F
WICHITA        MOSUNNY   85  66  53 SE12      29.97F
DODGE CITY     CLOUDY    88  53  30 S21G32    29.95F
OKLAHOMA CITY  CLOUDY    85  63  47 S8        29.98F
DALLAS         PTSUNNY   89  68  49 S10G17    29.96F HX  93
AMARILLO       PTSUNNY   82  50  32 S13       30.00F
$$




USA.gov is the U.S. government's official web portal to all federal, state and local government web resources and services.